TimeEST,TemperatureF,Dew PointF,Humidity,Sea Level PressureIn,VisibilityMPH,Wind Direction,Wind SpeedMPH,Gust SpeedMPH,PrecipitationIn,Events,Conditions,WindDirDegrees,DateUTC
12:54 AM,35.1,34.0,96,30.14,8.0,Calm,Calm,-,N/A,,Clear,0,2012-11-21 05:54:00
1:54 AM,33.1,32.0,96,30.14,7.0,Calm,Calm,-,N/A,,Clear,0,2012-11-21 06:54:00
2:54 AM,32.0,32.0,100,30.14,8.0,Calm,Calm,-,N/A,,Clear,0,2012-11-21 07:54:00
3:54 AM,34.0,33.1,96,30.14,8.0,Calm,Calm,-,N/A,,Clear,0,2012-11-21 08:54:00
4:54 AM,33.1,33.1,100,30.15,6.0,Calm,Calm,-,N/A,,Clear,0,2012-11-21 09:54:00
5:54 AM,28.9,28.9,100,30.17,4.0,Calm,Calm,-,N/A,,Clear,0,2012-11-21 10:54:00
6:54 AM,30.9,30.0,96,30.19,10.0,Calm,Calm,-,N/A,,Clear,0,2012-11-21 11:54:00
7:09 AM,30.2,30.2,100,30.17,2.0,Calm,Calm,-,N/A,,Clear,0,2012-11-21 12:09:00
7:16 AM,32.0,30.2,93,30.18,5.0,Calm,Calm,-,N/A,,Clear,0,2012-11-21 12:16:00
7:54 AM,34.0,34.0,100,30.21,6.0,Calm,Calm,-,N/A,,Clear,0,2012-11-21 12:54:00
8:54 AM,44.1,39.0,82,30.21,9.0,North,3.5,-,N/A,,Clear,360,2012-11-21 13:54:00
9:54 AM,46.9,39.9,77,30.22,10.0,NNE,5.8,-,N/A,,Clear,20,2012-11-21 14:54:00
10:54 AM,51.1,39.0,63,30.21,10.0,NNE,8.1,-,N/A,,Clear,20,2012-11-21 15:54:00
11:54 AM,53.1,37.9,57,30.19,10.0,North,4.6,-,N/A,,Clear,10,2012-11-21 16:54:00
12:54 PM,55.9,35.1,45,30.17,10.0,NNE,8.1,-,N/A,,Clear,30,2012-11-21 17:54:00
1:54 PM,55.9,36.0,47,30.16,10.0,East,3.5,-,N/A,,Clear,90,2012-11-21 18:54:00
2:54 PM,59.0,28.9,32,30.15,10.0,North,6.9,-,N/A,,Clear,10,2012-11-21 19:54:00
3:54 PM,59.0,30.9,35,30.16,10.0,NNW,3.5,-,N/A,,Clear,330,2012-11-21 20:54:00
4:54 PM,54.0,34.0,47,30.17,10.0,East,4.6,-,N/A,,Clear,90,2012-11-21 21:54:00
5:54 PM,46.0,35.1,66,30.19,10.0,Calm,Calm,-,N/A,,Clear,0,2012-11-21 22:54:00
6:54 PM,44.1,33.1,65,30.21,10.0,Calm,Calm,-,N/A,,Clear,0,2012-11-21 23:54:00
7:54 PM,39.0,33.1,79,30.23,10.0,Calm,Calm,-,N/A,,Clear,0,2012-11-22 00:54:00
8:54 PM,39.0,32.0,76,30.23,10.0,Calm,Calm,-,N/A,,Clear,0,2012-11-22 01:54:00
9:54 PM,41.0,32.0,70,30.23,10.0,North,4.6,-,N/A,,Clear,10,2012-11-22 02:54:00
10:54 PM,37.0,30.0,76,30.22,10.0,Calm,Calm,-,N/A,,Clear,0,2012-11-22 03:54:00
11:54 PM,36.0,30.0,79,30.23,10.0,Calm,Calm,-,N/A,,Clear,0,2012-11-22 04:54:00